{"data":{"norad_id":67399,"epoch":"2026-05-24T23:28:15.521088Z","epoch_age_seconds":76712,"freshness":"FRESH","line1":"1 67399U 26004AN  26144.97795742  .00003690  00000+0  17801-3 0  9990","line2":"2 67399  97.4567 144.5247 0009201  71.2055 289.0176 15.19278793 20246","mean_motion":15.19278793,"eccentricity":0.0009201,"inclination_deg":97.4567,"raan_deg":144.5247,"arg_perigee_deg":71.2055,"mean_anomaly_deg":289.0176,"bstar":0.00017801,"rev_number":2024,"period_min":94.781814018252,"perigee_km":501.68305490487,"apogee_km":514.35495918904,"semimajor_km":6886.156007047,"source":"CELESTRAK","updated_at":"2026-05-25T13:38:06.961999Z"}}